Weather History for Clines Corner, NM

Change the Weather History Date:

Tuesday, August 26, 2014

  Actual Average (KSAF) Record (KSAF)
Temperature  
Mean Temperature 63 °F -  
Max Temperature 75 °F 84 °F 93 °F (2002)
Min Temperature 53 °F 56 °F 46 °F (2001)
Degree Days  
Heating Degree Days 2    
Growing Degree Days 13 (Base 50)    
Moisture  
Dew Point 53 °F    
Average Humidity 74    
Maximum Humidity 90    
Minimum Humidity 50    
Precipitation  
Precipitation 0.09 in - - ()
Sea Level Pressure  
Sea Level Pressure 30.08 in    
Wind  
Wind Speed 8 mph (SSW)    
Max Wind Speed 14 mph    
Max Gust Speed -    
Visibility 10 miles    
Events Rain    
Averages and records for this station are not official NWS values.
T = Trace of Precipitation, MM = Missing Value Source: NWS Daily Summary

Daily Weather History Graph

Daily Weather History Graph

Search for Another Location

Airport:

Trip Planner

Search our weather history database for the weather conditions in past years. The results will help you decide how hot, cold, wet, or windy it might be!

Date:

Astronomy

Aug. 26, 2014 Rise Set
Actual Time 6:30 AM MDT 7:37 PM MDT
Civil Twilight 6:04 AM MDT 8:03 PM MDT
Nautical Twilight 5:33 AM MDT 8:34 PM MDT
Astronomical Twilight 5:01 AM MDT 9:06 PM MDT
Moon 7:29 AM MDT (8/26) 8:05 PM MDT (8/26)
Length of Visible Light 13h 58m
Length of Day
13h 06m
New Moon, 1% of the Moon is Illuminated
Aug 26
New Moon
Sep 2
First Quarter
Sep 8
Full
Sep 15
Last Quarter
Sep 24
New

Hourly Weather History & Observations

Time (MDT) Temp. Dew Point Humidity Pressure Visibility Wind Dir Wind Speed Gust Speed Precip Events Conditions
12:53 AM 57.0 °F 50.0 °F 77% 30.01 in 10.0 mi SW 9.2 mph - N/A   Clear
1:53 AM 55.9 °F 48.9 °F 77% 30.00 in 10.0 mi NW 6.9 mph - N/A   Clear
2:53 AM 53.1 °F 48.0 °F 83% 30.04 in 10.0 mi South 4.6 mph - N/A   Mostly Cloudy
3:53 AM 55.9 °F 48.0 °F 75% 30.00 in 10.0 mi WNW 6.9 mph - N/A   Scattered Clouds
4:53 AM 57.9 °F 50.0 °F 75% 30.03 in 10.0 mi West 8.1 mph - N/A   Overcast
5:53 AM 57.9 °F 50.0 °F 75% 30.05 in 10.0 mi WNW 8.1 mph - N/A   Overcast
6:53 AM 60.1 °F 50.0 °F 69% 30.09 in 10.0 mi WNW 6.9 mph - N/A   Overcast
7:53 AM 63.0 °F 52.0 °F 67% 30.09 in 10.0 mi West 3.5 mph - N/A   Mostly Cloudy
9:53 AM 64.9 °F 52.0 °F 63% 30.10 in 10.0 mi SE 8.1 mph - N/A   Overcast
10:53 AM 71.1 °F 53.1 °F 53% 30.10 in 10.0 mi SSE 13.8 mph - N/A   Scattered Clouds
11:53 AM 71.1 °F 54.0 °F 55% 30.09 in 10.0 mi South 9.2 mph - N/A   Scattered Clouds
12:53 PM 73.9 °F 54.0 °F 50% 30.05 in 10.0 mi SE 10.4 mph - N/A   Mostly Cloudy
1:53 PM 71.1 °F 52.0 °F 51% 30.06 in 10.0 mi SSW 9.2 mph - N/A   Mostly Cloudy
2:18 PM 64.9 °F 55.0 °F 70% 30.33 in 10.0 mi West 11.5 mph - N/A   Overcast
2:53 PM 62.1 °F 57.0 °F 84% 30.11 in 10.0 mi SW 11.5 mph - 0.00 in Rain Light Rain
3:53 PM 60.1 °F 57.0 °F 90% 30.11 in 6.0 mi SSE 10.4 mph - 0.08 in Rain Light Rain
4:53 PM 61.0 °F 55.0 °F 81% 30.07 in 10.0 mi SSW 11.5 mph - 0.01 in   Scattered Clouds
5:53 PM 63.0 °F 55.0 °F 75% 30.06 in 10.0 mi SSW 6.9 mph - N/A   Overcast
6:53 PM 62.1 °F 54.0 °F 75% 30.07 in 10.0 mi South 3.5 mph - N/A   Partly Cloudy
7:53 PM 61.0 °F 55.0 °F 81% 30.07 in 10.0 mi Calm Calm - N/A   Overcast
8:53 PM 59.0 °F 55.0 °F 87% 30.09 in 10.0 mi South 4.6 mph - N/A   Overcast
9:53 PM 57.0 °F 54.0 °F 89% 30.10 in 10.0 mi South 6.9 mph - N/A   Clear
10:53 PM 59.0 °F 54.0 °F 83% 30.08 in 10.0 mi South 4.6 mph - N/A   Overcast
11:53 PM 59.0 °F 55.0 °F 87% 30.06 in 10.0 mi South 5.8 mph - N/A   Overcast